DW9396 Weather Reports


time (UTC)temp
C
wind
direction
speed
KPH
gust
KPH
rain 1hr
cm
rain 24hr
cm
rain mn
cm
humidity
%
barometer
mb
20260902101555 7 133 0.0 1.6 0.00 0.00 0.00 86 1015.0
20260902100053 7 133 1.6 3.2 0.00 0.00 0.00 86 1014.9
20260902094554 7 132 0.0 0.0 0.00 0.00 0.00 87 1014.8
20260902093052 7 133 0.0 0.0 0.00 0.00 0.00 86 1015.0
20260902091555 7 132 0.0 0.0 0.00 0.00 0.00 86 1014.8
20260902090049 7 132 0.0 1.6 0.00 0.00 0.00 85 1014.8
20260902084550 7 133 0.0 3.2 0.00 0.00 0.00 85 1014.8
20260902083049 7 142 0.0 1.6 0.00 0.00 0.00 85 1014.9
20260902081542 8 142 0.0 1.6 0.00 0.00 0.00 85 1014.8
20260902080057 8 142 0.0 1.6 0.00 0.00 0.00 85 1015.0
20260902074541 8 144 0.0 1.6 0.00 0.00 0.00 84 1014.8
20260902073039 8 143 0.0 1.6 0.00 0.00 0.00 84 1014.8
20260902071538 8 144 0.0 3.2 0.00 0.00 0.00 84 1014.6
20260902070036 8 150 0.0 1.6 0.00 0.00 0.00 84 1014.6
20260902064534 8 56 0.0 0.0 0.00 0.00 0.00 83 1014.6
20260902063035 9 56 0.0 1.6 0.00 0.00 0.00 82 1014.8
20260902061558 9 119 0.0 1.6 0.00 0.00 0.00 81 1015.0
20260902060036 10 120 0.0 1.6 0.00 0.00 0.00 80 1015.1
20260902054544 10 36 0.0 0.0 0.00 0.00 0.00 81 1015.3
20260902053033 10 36 0.0 0.0 0.00 0.00 0.00 80 1015.4
20260902051532 11 36 0.0 0.0 0.00 0.00 0.00 80 1015.4
20260902050032 11 36 0.0 0.0 0.00 0.00 0.00 78 1015.2
20260902044532 11 35 0.0 0.0 0.00 0.00 0.00 76 1015.2
20260902043029 12 36 0.0 0.0 0.00 0.00 0.00 74 1014.9
20260902041527 12 36 0.0 1.6 0.00 0.00 0.00 72 1014.6
20260902040025 12 36 0.0 0.0 0.00 0.00 0.00 69 1014.3
20260902034524 13 39 0.0 0.0 0.00 0.00 0.00 68 1014.0
20260902033021 13 36 0.0 0.0 0.00 0.00 0.00 66 1013.7
20260902031521 13 36 0.0 0.0 0.00 0.00 0.00 64 1013.5
20260902030018 14 36 0.0 1.6 0.00 0.00 0.00 63 1013.3
20260902024522 15 96 0.0 1.6 0.00 0.00 0.00 61 1013.0
20260902023021 15 53 0.0 0.0 0.00 0.00 0.00 59 1012.7
20260902021520 16 52 0.0 0.0 0.00 0.00 0.00 57 1012.6
20260902020020 17 52 0.0 1.6 0.00 0.00 0.00 55 1012.5
20260902014528 17 55 0.0 4.8 0.00 0.00 0.00 53 1012.4
20260902013017 18 27 0.0 3.2 0.00 0.00 0.00 51 1012.2
20260902011517 18 26 0.0 3.2 0.00 0.00 0.00 50 1012.2
20260902010116 19 276 0.0 3.2 0.00 0.00 0.00 47 1012.1
20260902004517 20 348 0.0 4.8 0.00 0.00 0.00 47 1012.1
20260902003014 19 58 1.6 4.8 0.00 0.00 0.00 49 1012.1
20260902001514 19 34 1.6 4.8 0.00 0.00 0.00 48 1012.1
20260902000023 20 281 0.0 6.4 0.00 0.00 0.00 47 1012.1
20260901234514 20 27 1.6 4.8 0.00 0.00 0.00 47 1012.2
20260901233013 20 23 1.6 6.4 0.00 0.00 0.00 47 1012.3
20260901231514 20 269 1.6 8.0 0.00 0.00 0.00 48 1012.3
20260901230032 20 177 0.0 3.2 0.00 0.00 0.00 48 1012.4
20260901224514 20 327 1.6 4.8 0.00 0.00 0.00 50 1012.3
20260901223013 21 55 0.0 3.2 0.00 0.00 0.00 47 1012.2
20260901221514 21 304 0.0 4.8 0.00 0.00 0.00 46 1012.4
20260901220012 21 18 1.6 4.8 0.00 0.00 0.00 44 1012.4
20260901214510 21 9 0.0 4.8 0.00 0.00 0.00 46 1012.4
20260901213032 21 57 1.6 4.8 0.00 0.00 0.00 46 1012.5
20260901211516 21 17 3.2 9.7 0.00 0.00 0.00 44 1012.4
20260901210017 22 297 1.6 9.7 0.00 0.00 0.00 43 1012.2
20260901204511 22 15 0.0 4.8 0.00 0.00 0.00 44 1012.3
20260901203020 21 332 3.2 8.0 0.00 0.00 0.00 45 1012.4
20260901201511 22 197 1.6 8.0 0.00 0.00 0.00 46 1012.4
20260901200019 22 63 0.0 9.7 0.00 0.00 0.00 47 1012.5
20260901194509 23 285 1.6 9.7 0.00 0.00 0.00 36 1012.4
20260901193008 22 188 0.0 6.4 0.00 0.00 0.00 39 1012.4
20260901191502 22 323 1.6 4.8 0.00 0.00 0.00 47 1012.4
20260901190059 20 57 0.0 3.2 0.00 0.00 0.00 55 1012.4
20260901184556 19 27 0.0 11.3 0.00 0.00 0.00 58 1012.6
20260901183054 18 293 1.6 4.8 0.00 0.00 0.00 60 1012.9
20260901181552 18 323 1.6 6.4 0.00 0.00 0.00 61 1012.9
20260901180049 18 47 1.6 6.4 0.00 0.00 0.00 62 1013.0
20260901174547 16 5 1.6 4.8 0.00 0.00 0.00 67 1012.9
20260901173042 15 26 3.2 6.4 0.00 0.00 0.00 68 1012.8
20260901171539 15 39 0.0 8.0 0.00 0.00 0.00 73 1012.7
20260901170037 15 44 1.6 6.4 0.00 0.00 0.00 72 1012.5
20260901164538 15 51 1.6 6.4 0.00 0.00 0.00 72 1012.5
20260901163036 15 308 0.0 3.2 0.00 0.00 0.00 71 1012.4
20260901161537 13 280 0.0 1.6 0.00 0.00 0.00 75 1012.2
20260901160034 13 153 0.0 1.6 0.00 0.00 0.00 77 1012.2
20260901154526 12 176 0.0 1.6 0.00 0.00 0.00 82 1012.1
20260901153023 11 166 0.0 3.2 0.00 0.00 0.00 83 1011.9
20260901151523 10 172 0.0 0.0 0.00 0.00 0.00 88 1011.8
20260901150021 9 172 0.0 1.6 0.00 0.00 0.00 88 1011.4
20260901144519 9 172 0.0 1.6 0.00 0.00 0.00 89 1011.1
20260901143019 9 167 0.0 1.6 0.00 0.00 0.00 88 1010.9
20260901141521 9 167 0.0 1.6 0.00 0.00 0.00 89 1010.9
20260901140018 9 179 0.0 1.6 0.00 0.00 0.00 89 1010.8
20260901134517 9 343 0.0 4.8 0.00 0.00 0.00 89 1010.9
20260901133017 9 124 0.0 1.6 0.00 0.00 0.00 89 1010.9
20260901131523 9 138 0.0 3.2 0.00 0.00 0.00 89 1011.1
20260901130014 9 127 0.0 1.6 0.00 0.00 0.00 88 1011.1
20260901124517 9 177 0.0 1.6 0.00 0.00 0.00 87 1011.1
20260901123019 8 181 0.0 1.6 0.00 0.00 0.00 85 1010.7
20260901121511 8 183 0.0 0.0 0.00 0.00 0.00 81 1010.2
20260901120019 9 183 0.0 1.6 0.00 0.00 0.00 73 1010.0
20260901114506 10 138 0.0 0.0 0.00 0.00 0.00 69 1009.7
20260901113001 10 127 0.0 4.8 0.00 0.00 0.00 69 1009.4
20260901111600 10 142 0.0 4.8 0.00 0.00 0.00 69 1009.3
20260901111502 10 142 0.0 4.8 0.00 0.00 0.00 69 1009.3
20260901110108 10 131 0.0 6.4 0.00 0.00 0.00 69 1009.3
20260901104606 10 148 0.0 3.2 0.00 0.00 0.00 69 1009.4
20260901103059 10 135 0.0 3.2 0.00 0.00 0.00 70 1009.4